User: anonymous   Login
Location: Unspecified
(0.0000°N, 0.0000°E)
Time: 21:56:02
(UTC+00:00)
Language:

STARLINK-31357 - Orbit

View from above orbital plane
View from above orbital plane
View from above satellite
View from above satellite

Ground track
Ground track

The orbit is defined by the following mean orbital elements,

1 59502U          26145.40148419 +.00000000 +00000-0 -19135-4 0 00007
2 59502  43.0025 266.8652 0001948 288.0275  72.0364 15.27574858    00
Epoch (UTC): 25 May 2026 09:38:08
Eccentricity: 0.0001948
inclination: 43.0025°
perigee height: 482 km
apogee height: 484 km
right ascension of ascending node: 266.8652°
argument of perigee: 288.0275°
revolutions per day: 15.27574858
mean anomaly at epoch: 72.0364°

The dashed part of the orbit path shows where the satellite is in the earth's shadow,  

DLR